Погода Покровская

Погода Покровская : погода сейчас, прогноз погоды и архив. Всё, что Вы хотите узнать о погоде Покровская!

Хотите узнать прогноз погоды Покровская? Тогда Вам сюда: Погода Покровская

Поиск расширенной информации на нашем сайте:

Другие новости

Новости СМИ2

Главная страница сайта

Новости сайта

03.07.2017

Напоминаем, что на нашем специализированном сайте Метеоцентр.Азия вы можете получить высокодетализированные автоматические прогнозы погоды по пунктам России, СНГ и мира в авиационном формате (включающие направление и скорость ветра, видимость, явления погоды, количество и форму облачности, нижнюю и верхнюю границу облачности).


Погода Покровская - сегодня

Время (UTC), дата Ветер
(°,м/с) 
Видим.   Явления Облачность Т
(°С)
Тd
(°С)
f(%) Тe
(°С)
Pmin
(гПа)
dP
(гПа)
Po
(мм)
O2
(г/м3)
Тmin Tmax R s Состояние
почвы
18 12.08.18 250 (З) 20000 м    3/0 средняя 
[Ac trans]
+4.4 +3.9 97 +5  1013.2  0.7  749  296           
21 12.08.18 250 (З) 0500 м  туман  ?/?  
+5.1 +5.1 100 +5  1014.1  0.9  749  296           
00 13.08.18 030 (СВ) 0500 м  туман  ?/?  
+10 +10 100 +12  1015.1  1.3  750  290  +3.7        влажная 
03 13.08.18 060 (СВ) 20000 м  {туман}  4/4 600 м верхняя 
[Cu med, cong|Ci fib]
+15.9 +13.8 87 +24  1015  0.2  751  283           
06 13.08.18 010 (С) 20000 м  {снег}  6/4 600 м верхняя 
[Cu med, cong|Ci fib]
+20.2 +11.6 58 +24  1014.1  -0.7  750  279           
09 13.08.18 060 (СВ) 20000 м    6/3 600 м верхняя 
[Cu med, cong|Ci fib]
+21 +11 53 +24  1013.9  -0.2  750  279           
12 13.08.18 020 (С) 20000 м    3/0 верхняя 
[Ci fib]
+15.8 +11.6 76 +20  1015  0.9  751  284    +22.1       
15 13.08.18 250 (З) 20000 м    9/0 средняя 
[Ac trans]
+9.4 +8.4 93 +10  1016.7  1.3  752  291           
18 13.08.18 250 (З) 20000 м    ясно 
+5.9 +5.3 96 +6  1018.2  1.3  752  296           
21 13.08.18 250 (З) 20000 м    ясно 
+5.6 +5.4 99 +6  1019.5  1.2  753  297           
00 14.08.18 090 (В) 20000 м    ясно 
+15 +11.9 82 +20  1019.6  0.7  754  286  +4.6        сухая 
03 14.08.18 040 (СВ) 20000 м    1/1 600 м 
[Cu hum]
+20.7 +12.6 60 +25  1019.5  0.2  754  280           
06 14.08.18 060 (СВ) 20000 м    3/3 600 м 
[Cu hum]
+23.3 +10.2 43 +25  1019.4  -0.6  754  278           
09 14.08.18 050 (СВ) 20000 м    3/3 600 м верхняя 
[Cu hum|Ci fib]
+23.9 +12 47 +28  1018  -0.7  753  277           
12 14.08.18 тихо ()   20000 м    1/0 верхняя 
[Ci fib]
+16.2 +13.2 82 +22  1018.5  0.1  753  284    +24.9       
15 14.08.18 250 (З) 20000 м    ясно 
+10.5 +9.3 92 +11  1019.5  0.7  754  291           
18 14.08.18 250 (З) 20000 м    ясно 
+8.4 +7.3 93 +8  1020.2  0.6  754  294           
21 14.08.18 240 (ЮЗ) 20000 м    1/0 верхняя 
[Ci fib]
+6.9 +6.7 99 +8  1020.8  0.5  755  295           
00 15.08.18 110 (В) 20000 м    10/0 верхняя 
[Ci fib]
+16.4 +13.2 81 +24  1020.1  -0.2  754  284  +6.2        сухая 
03 15.08.18 070 (В) 20000 м    10/0 верхняя 
[Ci fib]
+23.6 +12.2 49 +28  1018.6  -1.1  754  277           
06 15.08.18 170 (Ю) 20000 м    10/3 600 м верхняя 
[Cu hum|Ci fib]
+26 +9 34 +26  1016.7  -1.9  752  275           
09 15.08.18 170 (Ю) 20000 м    10/0 верхняя 
[Cs]
+24.8 +9 37 +25  1015.4  -1.3  751  276           
12 15.08.18 120 (ЮВ) 20000 м    10/0 верхняя 
[Cs]
+19.9 +9.6 51 +22  1015.3  -0.3  751  280    +27.4       
15 15.08.18 тихо ()   20000 м    10/0 верхняя 
[Ci fib]
+15.2 +10.1 72 +16  1015.1  -0.5  751  285           
18 15.08.18 090 (В) 20000 м    10/0 верхняя 
[Ci fib]
+16.3 +9.6 64 +18  1013.5  -1.5  749  283           
Время (UTC), дата Ветер
(°,м/с) 
Видим.   Явления Облачность Т
(°С)
Тd
(°С)
f(%) Тe
(°С)
Pmin
(гПа)
dP
(гПа)
Po
(мм)
O2
(г/м3)
Тmin Tmax R s Состояние
почвы

Для получения пояснительной информации подведите курсор к названию столбца.

ПОГОДА Покровская - архив

Всё, что Вы хотите узнать о погоде Покровская - удобно и подробно!

Выберите нужную дату (начиная с 1 января 2015* года) и нажмите кнопку "Найти".
Будут отображены архивные сводки погоды по пункту Покровская, начиная с указанной даты.


Отображать данные в формате CSV (для использования в таблицах Excel)


Внимание! Наш архив погоды предназначен исключительно для личного некоммерческого использования в познавательных целях. Если Вам необходимы официальные справки о состоянии погоды (для производственных, юридических, коммерческих и т.п. целей), обращайтесь в органы Росгидромета.

*Примечание: данная дата относится к архиву по метеостанциям СССР (Россия, СНГ, Балтия).
Архив по метеостанциям Зарубежной Европы и Азии (кроме Китая) хранится 10 дней, по другим регионам земного шара (Китай, Африка, Америка, Австралия, Океания) - 1 день.

Покровская - район местоположения метеостанции


Название, широта, долгота, высота метеостанции:
Покровская 61.5°ш. 129.2°д. 115 м над ур. моря [Российская Федерация]

Дополнительная информация

В oтличие oт бoльшинства пoгoдных сайтoв мы публикуем пoдрoбную метеoинфoрмацию в детальнoм прoфессиoнальнoм фoрмате.

Характеристики температуры и влажнoсти вoздуха измеряются на высoте 2 м в тени вдали oт зданий и деревьев.
Скoрoсть ветра измеряется на высoте 10 м (на урoвне рoста челoвека скoрoсть ветра ниже в 1.5-2 раза). Если метеoстанция нахoдится в гoрoде или в лесу, тo скoрoсть ветра занижена на 2-4 м/с пo сравнению с oткрытым местoм. Скoрoсть ветра над акватoриями крупных рек и oзёр, а также на вершинах хoлмoв на 2-5 м/с выше, чем в oбычных услoвиях.
Атмoсфернoе давление в разных тoчках местнoсти мoжет значительнo oтличаться oт давления на метеoстанции, в зависимoсти oт услoвий рельефа (при пoдъёме на 10 м давление пoнижается примернo на 1 мм рт.ст.).